CAPE
2189 2104 2577 3028 3028 3056 3067 2953 2841 2728 2523 2390 2273 2071 1888 1806 1780 1876 1840 1566 1244 906 900 865 782 705 742 757 824 997 1009 1210 1222 1179 1190 1328 1410 1607 1703 1768 1750 1808 1748 1813 1751 1705 1737 1595 1525 1532 1508 1532 1457 1510 1642 1778 1816 1930 1997 2002 1950 1808 1682 1480 1350 1119 1027 921 828 714 691 646 996 831 728 544 410 295 246 267 404 310 260 382 595
2064 2350 2727 2885 2884 2939 2965 2846 2760 2632 2542 2375 2138 1958 1886 1917 1993 1908 1681 1438 1120 998 1037 1025 920 914 828 748 880 1126 1149 1213 1222 1276 1328 1457 1544 1578 1767 1710 1646 1762 1849 1714 1557 1549 1643 1600 1545 1594 1462 1497 1620 1540 1520 1744 1930 1917 1942 1933 1876 1874 1741 1527 1386 1219 1037 881 660 449 392 595 687 735 646 490 350 316 286 200 298 261 295 301 320
2004 2302 2606 2708 2947 2955 2867 2828 2720 2572 2380 2222 2049 1946 1988 2085 1993 1698 1442 1260 1097 1091 1062 1071 1153 1111 972 913 1043 1108 1162 1233 1265 1320 1522 1517 1589 1636 1699 1656 1630 1611 1571 1604 1562 1651 1676 1619 1770 1719 1667 1646 1586 1582 1530 1664 1918 1883 1855 1862 1778 1818 1708 1489 1313 1139 871 705 562 423 278 342 437 382 364 372 382 344 324 363 264 244 174 193 318
1953 2257 2468 2812 2922 2796 2771 2724 2583 2521 2300 2111 1969 1980 2119 2063 1703 1455 1303 1199 1209 1158 1120 1155 1220 1191 1188 1189 1168 1211 1224 1185 1212 1348 1418 1476 1749 1772 1768 1556 1550 1774 1738 1644 1515 1642 1451 1581 1661 1724 1776 1652 1544 1574 1561 1742 1781 1772 1760 1703 1781 1806 1700 1539 1252 981 543 411 337 323 336 154 164 245 267 256 284 263 235 271 268 334 365 322 302
1966 2262 2493 2624 2668 2737 2690 2620 2491 2388 2265 2084 2064 2038 2038 1815 1495 1387 1283 1229 1204 1114 1262 1344 1274 1262 1214 1168 1307 1284 1214 1243 1487 1397 1482 1609 1794 1652 1481 1531 1711 1752 1726 1683 1543 1649 1510 1902 1878 1810 1713 1670 1549 1638 1618 1578 1523 1532 1532 1526 1523 1513 1757 1482 1193 679 506 316 243 209 128 158 198 272 301 287 231 207 568 437 420 436 563 406 317
1943 2168 2308 2408 2516 2640 2606 2524 2398 2278 2224 2013 2026 2051 1903 1684 1462 1311 1287 1244 1160 1092 1296 1358 1259 1203 1279 1430 1410 1286 1265 1560 1676 1652 2023 1751 1937 1762 1634 1595 1759 1704 1728 1593 1566 1864 1846 1835 1838 1849 1722 1680 1627 1614 1594 1527 1527 1420 1409 1401 1422 1412 1588 1620 1547 1360 1844 2115 912 52 40 75 135 212 325 452 372 274 384 522 475 441 426 495 484
1874 1913 2116 2252 2379 2472 2469 2404 2277 2198 2116 2071 2064 1923 1786 1637 1393 1267 1253 1248 1197 1145 1328 1398 1303 1430 1303 1364 1324 1353 1558 1732 1949 1797 1791 1799 1865 1952 1775 1574 1807 2043 1864 1728 1919 1736 1798 1690 1636 1715 1701 1657 1636 1465 1490 1556 1413 1308 1274 1088 1037 1020 922 1228 1721 1366 1424 1948 721 93 325 380 260 293 503 508 548 665 670 508 452 434 422 505 406
1284 1521 2011 2091 2235 2373 2376 2350 2187 2133 2118 2095 1979 1882 1754 1567 1331 1210 1221 1226 1213 1222 1355 1387 1343 1349 1272 1590 1423 1581 1765 1948 2016 1911 1877 1818 1850 2020 1879 1733 1758 2040 1943 1923 1611 1570 1595 1443 1670 1725 1691 1628 1516 1408 1266 1249 1146 929 872 898 718 919 1070 1133 1179 1461 1090 1337 204 322 451 540 611 596 840 866 989 1004 781 545 460 510 751 824 710
1333 1480 1839 1980 2174 2442 2383 2265 2165 2095 2019 1934 1853 1782 1676 1503 1308 1239 1253 1233 1311 1337 1341 1420 1422 1382 1503 1800 1709 1651 1953 2044 1980 1989 1955 1914 1840 1646 1974 1656 1592 1774 1998 2128 1950 1896 1485 1631 1682 1638 1460 1289 1123 1053 953 956 867 678 624 729 838 839 734 978 1719 1753 1605 158 321 407 485 635 873 1027 1262 1214 923 594 515 312 497 663 1059 1047 992
1339 1567 1805 1942 2144 2366 2248 2201 2082 1884 1915 1869 1754 1666 1539 1431 1318 1259 1289 1262 1344 1372 1374 1422 1336 1381 1674 1806 1928 1862 2043 2075 2019 2077 2000 1937 1836 1778 1711 1705 1685 1620 1639 1639 1629 1681 1672 1729 1639 1596 1284 1092 1011 820 820 681 750 667 466 451 367 1160 945 1157 1701 371 152 352 348 394 626 639 512 520 981 1232 1070 583 454 392 846 940 1006 1157 1039
1532 1612 1698 1926 2131 2124 2127 2103 2018 1880 1776 1728 1594 1443 1391 1371 1246 1214 1232 1239 1221 1244 1428 1149 967 1338 1799 1956 1862 1912 2010 2103 2088 2047 2009 1906 1832 1884 1682 1637 1795 1723 1809 1833 1732 1699 1798 1745 1625 1641 1281 1037 1041 967 706 720 593 599 648 740 718 1096 1088 1180 1195 208 179 191 158 428 724 765 551 545 723 984 1016 996 941 796 753 819 846 885 826
1550 1497 1662 1913 2187 1985 2090 2078 2047 1906 1753 1681 1423 1282 1146 1018 1254 1182 1132 1117 951 990 1363 1247 1300 1341 1618 1988 1969 1939 2024 2087 2143 2043 1942 1799 1730 1637 1525 1503 1489 1532 1715 1745 1817 1686 1703 1551 1541 1325 1020 922 974 799 714 568 574 662 738 913 688 867 1002 1350 906 96 105 97 118 383 462 552 604 734 906 973 858 851 947 868 831 741 666 624 735
1447 1436 1710 1836 1834 2017 2029 2013 1984 1900 1670 1414 1524 1302 970 855 874 1096 1101 1213 1135 1068 1016 1275 1430 1877 2210 2299 2207 2090 2233 2159 2023 1982 1882 1807 1730 1652 1654 1502 1463 1600 1543 1582 1608 1464 1612 1622 1508 1469 1178 929 838 791 689 444 687 765 706 655 778 1012 1009 1717 660 64 61 79 230 460 648 689 709 777 737 755 825 831 821 616 574 608 545 479 518
1520 1567 1635 1552 1742 2026 1898 1761 1761 1757 1654 1458 1347 1242 1193 1121 993 932 1025 1209 1128 1226 1400 1494 1597 1856 2124 2418 2480 2426 2282 2258 2099 1908 1883 1701 1698 1472 1501 1518 1459 1510 1627 1554 1620 1524 1388 1344 1489 1324 1082 947 876 749 679 646 722 571 699 406 780 1144 1486 842 409 188 171 145 184 355 519 592 619 631 516 611 617 643 607 529 490 414 380 328 234
1482 1413 1315 1483 1603 1719 1831 1715 1644 1626 1538 1412 1384 1354 1286 1267 1145 1038 1117 902 1038 1532 1316 1223 1585 1704 1754 2152 2322 2366 2156 2026 1825 1737 1725 1762 1736 1408 1353 1417 1425 1420 1537 1528 1532 1620 1503 1296 1380 1328 1040 912 852 721 666 630 676 538 306 963 643 1194 1679 881 376 350 158 145 140 122 124 166 565 528 378 399 358 339 313 282 310 243 161 109 56
1476 1414 1441 1393 1412 1438 1571 1625 1598 1533 1453 1370 1410 1374 1377 1270 1225 958 1097 1240 1449 1424 1462 1506 1750 1807 2029 2105 2134 2124 2033 1830 1910 1770 1862 1627 1658 1501 1241 1358 1356 1435 1513 1566 1557 1504 1552 1514 1297 1157 1020 936 870 744 642 632 572 633 517 848 1363 1524 2018 1281 134 94 64 61 97 108 98 351 552 482 418 338 222 176 156 137 176 160 96 66 60
1764 1663 1475 1279 1242 1345 1422 1370 1489 1406 1454 1494 1502 1364 1208 1309 1275 1283 1399 1269 1187 1144 1237 1441 1808 1830 1864 1946 1959 1971 1952 1810 1759 1725 1661 1589 1722 1603 1231 1170 1318 1345 1442 1460 1544 1534 1464 1464 1312 1097 987 918 835 721 633 656 699 665 866 1109 1327 1747 2242 868 232 51 51 100 65 18 251 258 358 404 247 244 240 260 190 143 111 248 364 251 318
1887 1732 1499 1072 1129 1245 1195 1144 1261 1368 1265 1401 1319 1226 1151 1163 1376 1422 1538 1374 1285 1471 1501 1733 1814 1727 1610 1590 1726 1749 1710 1702 1702 1792 1717 1801 1669 1576 1443 1266 1328 1429 1485 1538 1612 1559 1527 1424 1297 1110 987 900 710 657 642 615 712 663 907 1038 1564 1880 2221 576 258 182 210 237 48 137 86 601 591 409 414 251 86 79 141 128 85 250 184 219 214
1923 1811 1472 710 903 1013 1104 1176 1194 1204 1130 1152 1144 1216 1228 1215 1382 1411 1420 1430 1463 1329 1412 1739 1682 1616 1588 1480 1432 1426 1666 1656 1582 1526 1482 1417 1481 1481 1476 1464 1474 1436 1402 1331 1582 1504 1292 1445 1368 1059 945 768 696 560 589 699 600 705 790 1147 1664 1715 1599 554 465 386 186 11 1 16 472 659 504 298 381 321 184 103 60 40 66 129 128 88 81
1799 1563 1175 812 614 874 1039 1060 1075 1078 1065 1112 1121 1132 1312 1286 1352 1439 1346 1234 1252 1528 1876 1751 1617 1450 1384 1426 1499 1673 1652 1498 1573 1596 1472 1400 1416 1319 1402 1396 1400 1381 1358 1408 1462 1476 1270 1203 1205 1056 898 753 614 588 555 556 630 725 842 1493 1585 1352 338 372 366 352 64 29 35 171 528 384 302 122 59 43 9 78 228 105 111 84 47 23 2
1764 1531 1081 885 806 696 900 909 976 1026 1009 1046 1175 1180 1378 1463 1348 1290 1265 1392 1657 1809 1869 1697 1568 1464 1511 1702 1530 1293 1299 1268 1285 1331 1465 1343 1229 1564 1413 1394 1387 1364 1341 1380 1504 1457 1486 1265 1184 1080 894 723 572 580 548 605 577 844 969 1389 1099 469 356 394 375 63 22 57 152 198 315 186 42 60 40 6 21 42 55 57 26 4 7 17 11
1760 1405 1145 1079 811 941 880 876 834 888 894 1024 1158 1247 1387 1394 1317 1194 1224 1303 1546 1750 1692 1590 1792 1347 1480 1426 1334 1471 1174 1054 1101 1581 1228 1355 1245 1456 1353 1431 1358 1309 1381 1321 1351 1450 1490 1280 1184 1064 938 672 568 348 257 462 606 697 865 1215 730 735 617 366 286 74 70 51 169 301 125 72 80 59 66 48 34 20 4 41 20 9 38 25 15
1587 1238 816 994 865 1017 1140 1018 663 668 946 1126 1251 1328 1205 1147 1243 1167 1299 1569 1455 1668 1569 1639 1273 1161 1128 1172 1280 1239 1161 1156 1190 1219 1092 1164 1264 1486 1383 1402 1320 1322 1338 1253 1318 1455 1544 1337 1247 1169 924 808 589 289 439 538 607 673 726 675 796 598 579 695 414 269 21 49 15 161 82 58 35 32 42 36 27 35 21 15 10 5 4 4 2
1639 1306 996 1021 936 901 1144 1139 920 1029 1167 1236 1332 1226 1047 1029 1094 998 1068 1073 1179 1154 1090 1200 1164 966 851 931 926 1035 946 1039 1390 1403 1156 1085 1447 1398 1420 1318 1368 1323 1298 1388 1482 1374 1450 1386 1322 1246 1196 879 380 348 454 517 573 642 707 749 780 766 600 584 525 377 44 114 43 108 67 51 47 42 22 15 20 6 2 0 8 6 4 2 3
1795 1617 1372 962 1047 956 884 935 902 1058 1165 1266 1334 1068 1034 991 960 926 912 898 901 894 918 970 806 870 658 657 656 714 881 850 747 935 856 858 1110 1054 1231 1011 1027 1193 1342 1205 1269 1259 1499 1338 1163 1228 1108 538 216 382 483 571 654 691 678 658 800 580 532 478 438 311 3 23 75 126 99 79 54 47 70 51 8 4 0 1 8 4 8 8 3
1636 1548 1190 1137 1145 825 843 784 850 990 1074 1177 1193 1266 982 869 844 929 984 945 875 767 868 766 772 724 616 535 509 444 676 821 651 698 811 742 833 819 811 878 805 862 1385 1049 1186 1094 1280 1132 1120 1113 1049 690 259 179 313 82 589 669 660 691 824 658 552 492 402 292 249 6 151 118 58 26 66 25 48 16 0 1 2 2 3 9 3 3 2
1458 1558 1484 1360 1215 1210 1121 952 781 838 983 1093 1114 919 875 815 746 848 892 903 805 696 678 757 739 675 692 589 535 547 694 746 728 644 636 676 789 583 586 494 569 692 1019 697 861 1221 1204 1040 1070 1060 897 560 420 484 600 634 440 535 656 709 772 541 406 441 459 347 193 4 154 86 52 36 180 52 20 0 1 3 2 1 0 1 1 2 2
1597 1660 1628 1627 1543 1279 1249 1131 908 956 895 1059 1056 723 677 768 698 1146 758 824 819 709 728 715 753 665 643 503 627 572 587 696 746 718 719 597 624 956 574 427 332 491 709 632 326 841 1318 1077 1157 1173 924 757 852 929 995 1034 512 480 576 466 549 549 524 456 350 332 289 0 36 86 66 281 229 26 32 6 1 1 0 0 0 0 1 0 1
1597 1576 1725 1611 1468 1360 1348 1286 1013 1066 989 1029 1117 880 831 854 859 762 743 1025 718 673 524 574 716 839 657 680 574 702 799 877 863 806 756 648 701 567 568 476 316 57 207 481 161 565 1202 1130 1217 1316 937 797 902 871 908 908 342 501 394 400 498 388 396 398 391 381 201 65 0 36 38 41 64 99 18 0 0 0 1 2 0 2 3 3 4
1313 1320 1564 1600 1372 1288 1273 1328 1194 1117 1076 1043 1144 1018 1080 1112 1006 923 836 912 859 844 781 664 592 770 957 732 700 886 953 972 842 778 775 729 607 581 583 543 483 120 20 11 0 320 833 1106 1081 1308 1102 740 903 838 794 484 393 508 384 390 453 434 374 320 260 242 255 228 0 82 85 153 205 202 54 0 0 0 1 0 2 2 4 4 3
1310 1303 1500 1460 1324 1349 1440 1364 1264 1253 1502 1284 1220 1149 1051 1068 1023 994 1013 990 922 886 893 828 706 732 835 869 821 985 1088 1042 1001 1094 798 778 804 720 688 522 359 286 291 28 0 70 395 558 595 1024 1109 820 744 793 770 479 394 390 398 416 372 426 390 256 256 234 242 52 0 5 91 37 18 16 15 3 0 0 2 1 2 4 1 3 6
1466 1240 1083 1326 1431 1434 1496 1337 1373 1408 1396 1363 1267 1233 1190 1190 1187 1136 1090 1004 916 856 854 797 748 736 792 956 1037 1126 1177 1111 1082 1004 1027 720 637 733 636 630 417 413 321 215 207 87 341 410 449 622 1014 957 937 819 703 371 336 324 508 485 522 448 182 311 250 233 167 40 0 2 3 10 63 5 1 1 24 4 0 1 2 0 0 3 9
1472 1175 1172 1153 1436 1441 1449 1356 1266 1309 1395 1429 1386 1284 1222 1180 931 896 1097 1221 815 805 822 881 813 782 942 761 1051 1175 1153 1061 998 922 1063 768 688 729 713 880 626 605 449 344 304 108 183 263 261 366 627 794 871 795 530 282 259 322 444 486 453 459 335 384 346 199 203 1 0 0 0 19 10 61 53 5 68 0 0 0 0 0 0 1 6
1513 1374 1349 1266 1209 1356 1393 1286 1189 1258 1342 1319 1315 1151 1307 1085 930 940 1252 1090 888 867 906 764 851 964 948 902 1131 938 951 1044 1093 974 955 1022 920 704 694 673 708 593 585 604 482 228 129 50 118 169 350 463 639 621 604 412 214 148 309 337 324 509 370 326 280 0 220 256 0 0 0 0 0 2 25 16 111 61 0 0 0 0 0 8 7
1834 1823 1645 1580 1522 1451 1309 1275 1274 1360 1454 1365 1436 1423 1490 1190 1032 1163 1187 1142 1127 939 979 942 945 1120 1029 1102 965 1001 928 1200 1227 1194 1102 948 913 764 750 677 754 636 635 642 508 244 122 108 122 153 276 539 642 582 592 584 476 220 86 145 36 277 196 323 326 316 0 0 0 0 0 0 0 0 0 1 127 10 0 0 0 0 1 8 45
2322 1994 1859 1768 1660 1636 1508 1436 1425 1444 1486 1576 1482 1550 1583 1511 1456 1561 1425 1397 1124 1047 1089 991 846 1172 1349 1369 1212 1397 1433 1466 1449 1354 1159 1048 966 896 600 615 775 654 642 555 631 394 206 178 175 176 370 805 835 584 461 312 506 354 270 116 127 110 101 103 215 351 344 38 26 22 0 147 0 0 39 0 0 0 1 10 6 1 2 56 108
2317 2313 2224 2010 1951 1985 1642 1459 1372 1365 1444 1521 1710 1698 1777 1730 1671 1442 1201 1265 1266 1365 1312 1150 1036 932 851 1368 1335 1424 1572 1549 1568 1442 1352 1078 965 880 745 854 856 717 568 578 600 511 263 252 218 307 586 769 949 699 365 288 370 367 216 217 184 164 114 156 205 288 340 8 78 241 266 0 0 102 1 0 0 0 1 139 7 187 158 152 150
1836 2008 2188 2092 2031 1900 1757 1762 1719 1681 1670 1604 1818 1909 1807 1815 1692 1461 1401 1391 1335 1329 1250 1028 998 909 926 1108 1238 1252 1484 1504 1405 1418 1290 1236 1075 863 839 808 803 771 734 606 566 575 431 205 194 226 623 629 844 738 555 469 446 473 243 101 216 235 152 166 103 306 284 102 92 114 314 87 0 0 0 0 0 0 0 41 48 216 257 283 194
1641 1524 1892 1845 1522 1610 1755 1710 1888 1857 1898 1849 1911 1952 2080 1880 1780 1648 1436 1440 1537 1393 1302 1094 960 1015 1026 1069 1198 1198 1191 1196 1294 1392 1338 1313 1141 974 932 708 759 776 769 695 574 549 542 330 233 268 502 498 642 700 542 541 612 534 420 295 129 197 243 208 112 172 229 224 184 296 297 2 13 1 0 0 0 0 0 0 0 10 190 297 286
1801 1693 1818 1970 1906 1737 1611 1511 1502 1655 1596 1665 1604 1578 1747 1707 1532 1443 1443 1425 1548 1464 1278 1145 945 923 957 1037 933 1215 1340 1326 1323 1403 1394 1272 1107 986 976 790 702 680 684 676 610 584 548 514 498 535 465 395 474 624 602 516 516 494 471 245 250 244 197 237 130 233 353 351 602 381 143 88 90 0 0 0 0 0 0 0 47 3 30 274 355
1718 1658 1601 1619 1644 1603 1573 1549 1593 1714 1735 1710 1630 1526 1458 1638 1630 1439 1475 1269 1700 1394 1292 1378 1258 1148 1161 1104 943 856 1174 1360 1429 1383 1338 1297 1171 1138 1043 908 739 771 645 625 657 600 566 571 588 575 463 408 532 331 510 533 453 426 335 136 290 324 285 395 312 438 504 712 197 338 232 152 92 20 0 0 0 0 0 0 0 0 2 32 245
1346 1366 1489 1613 1524 1415 1366 1524 1522 1244 1372 1471 1645 1498 1428 1330 1517 1526 1548 1512 1576 1509 1529 1519 1478 1304 1213 1099 961 853 895 1057 1376 1430 1359 1244 1196 1205 1126 995 834 764 640 568 582 637 640 662 690 629 486 380 423 360 269 238 236 186 162 157 295 326 268 258 358 476 550 484 589 341 83 95 73 39 15 0 0 0 0 0 0 0 2 1 0
1194 1136 1149 1080 1187 1244 1306 1302 1302 1034 954 1122 1240 1478 1427 1227 1380 1442 1393 1456 1358 1406 1516 1600 1492 1364 1267 1100 979 896 906 989 1169 1304 1358 1294 1215 1204 1114 1045 942 752 659 638 669 721 630 663 649 581 562 479 356 404 407 232 250 221 244 227 165 112 118 260 370 470 740 366 582 407 281 66 79 21 38 50 45 25 13 10 7 25 39 3 0
1115 1090 1184 1328 1337 1250 1152 1102 1132 1189 1189 1204 1097 1012 851 1209 1355 1318 1467 1532 1589 1368 1632 1655 1603 1577 1491 1315 1165 974 933 1028 1112 1224 1304 1289 1288 1273 1204 1054 1046 937 802 695 700 732 705 639 613 606 572 589 432 410 417 461 246 236 238 194 167 164 213 217 370 569 631 449 484 405 366 279 44 16 13 98 76 81 56 92 85 83 114 54 0
921 972 1032 1078 1203 1278 1199 1171 1172 1123 1092 1136 959 1071 1155 1172 1110 1057 1462 1520 1634 1328 1527 1576 1646 1668 1639 1560 1519 1278 1052 1046 1077 1222 1278 1230 1222 1205 1232 1267 1187 1123 1017 860 809 814 790 748 699 676 647 634 583 516 516 451 348 253 239 183 1 48 87 82 201 394 664 668 533 296 499 247 86 93 3 27 21 122 149 194 312 78 97 146 14
857 796 812 906 965 997 1171 1177 1026 947 978 1068 1074 1108 1230 1021 1117 1044 1119 1304 1215 973 1268 1053 1279 1287 1212 1406 1408 1391 1213 1119 1124 1121 1216 1267 1263 1254 1294 1323 1310 1219 1170 1049 913 903 872 803 753 728 664 730 717 498 518 422 482 420 292 80 32 37 6 305 268 303 628 615 571 502 482 430 63 52 3 4 1 47 25 183 474 378 248 229 118
909 904 798 695 773 865 940 913 883 915 986 1036 1040 1045 1089 1134 1279 1284 1294 1314 1364 1197 1106 1610 1574 1776 1965 1611 1537 1561 1493 1377 1291 1211 1145 1087 1131 1170 1195 1278 1330 1313 1332 1215 1074 994 922 819 750 707 704 732 768 697 462 432 391 454 472 360 232 256 20 247 316 385 486 486 450 501 449 442 341 36 7 18 56 7 11 124 286 398 269 230 263
907 893 857 773 614 660 762 776 740 758 801 934 930 925 944 952 1061 1110 1109 1154 1100 1116 1075 1664 1472 1537 1635 1679 1798 1767 1690 1528 1476 1450 1396 1396 1395 1332 1290 1239 1256 1310 1389 1319 1189 1027 962 867 729 686 652 759 851 751 581 478 370 315 370 445 273 269 109 53 108 203 156 348 369 399 382 387 311 14 0 8 58 6 3 6 133 178 267 304 270
681 651 765 780 696 554 496 540 594 591 572 591 720 822 894 957 1022 976 984 989 1058 1131 1169 1184 1256 1158 1141 1370 1495 1558 1482 1365 1233 1274 1275 1218 1151 1290 1348 1254 1270 1271 1223 1113 1044 1092 1052 917 777 665 649 646 731 806 617 468 406 344 299 337 346 250 342 195 421 320 267 236 240 288 278 245 254 27 0 0 17 5 17 1 39 122 212 369 301
471 582 621 690 774 657 417 248 373 406 222 342 410 570 725 807 927 912 913 969 954 961 1019 1112 1032 1061 1125 1121 1258 1370 1395 1300 1267 1168 1242 1276 1232 1206 1236 1336 1313 1322 1223 1106 986 955 1038 1013 917 768 646 660 635 644 632 517 366 330 405 356 345 416 520 537 549 403 313 59 0 216 241 209 175 224 280 81 6 0 6 0 32 123 200 360 329
355 418 656 762 766 630 427 244 295 0 0 0 0 494 442 385 529 645 637 588 690 873 949 923 954 1126 1110 1062 1161 1043 1076 1144 1148 1119 1138 1179 1175 1118 1040 894 836 1024 987 938 972 949 902 996 966 879 766 689 614 513 525 552 413 298 426 510 460 542 596 621 590 512 349 238 120 67 245 224 186 205 210 255 23 189 5 18 30 51 141 335 276
Wind_Speed
30 32 25 26 31 33 31 30 28 28 28 27 27 27 27 27 27 26 26 27 27 27 27 28 29 29 29 29 29 28 28 28 30 29 28 27 27 27 26 26 26 25 25 24 25 24 24 23 22 21 19 19 19 19 18 16 15 14 13 14 14 14 14 14 14 13 12 12 12 12 12 12 13 14 14 14 14 14 13 13 8 5 5 9 13
32 26 21 22 29 30 29 28 27 28 28 28 27 27 26 26 26 26 26 27 27 28 28 28 29 30 30 29 29 28 28 28 29 28 28 26 26 26 26 26 25 24 24 23 23 23 23 22 22 20 19 19 19 19 17 16 13 12 12 13 13 13 12 13 13 13 12 12 12 12 12 13 13 13 14 14 14 14 13 12 12 3 3 12 12
29 26 20 25 29 29 27 27 27 27 27 27 27 26 25 25 25 26 26 26 27 28 28 29 29 30 30 30 29 29 29 28 28 28 28 27 26 25 24 25 24 24 24 23 23 23 23 22 21 20 19 19 19 18 17 15 12 11 12 13 12 11 11 11 11 13 13 13 11 12 13 13 13 13 14 14 14 14 14 13 13 11 7 14 12
29 21 20 25 29 26 25 26 27 27 27 27 26 25 23 23 25 25 25 26 27 28 29 29 29 29 30 30 30 28 28 28 29 29 28 28 26 26 25 25 25 24 24 24 24 23 23 22 21 20 19 18 18 17 16 13 11 9 11 13 12 11 10 9 10 12 13 12 11 6 2 3 7 13 14 14 14 14 14 14 14 14 15 13 14
27 23 22 22 21 22 24 25 25 27 26 26 26 24 24 23 24 25 25 25 26 27 29 29 29 29 29 30 29 28 27 28 28 28 28 28 27 27 27 27 26 25 25 24 24 23 22 22 20 19 18 17 16 15 13 12 9 9 10 13 12 11 10 10 9 11 14 12 10 4 1 1 2 10 13 14 14 13 14 14 14 14 15 16 15
26 24 23 20 18 19 23 23 25 27 25 26 25 25 23 23 24 25 25 26 26 28 29 29 29 28 29 29 28 27 27 27 27 26 25 27 26 28 28 27 26 25 24 24 24 23 21 20 19 18 17 16 15 14 12 10 8 8 10 11 11 8 7 6 9 9 3 4 4 nan nan nan 2 4 12 13 12 12 13 14 14 13 15 16 16
27 22 21 18 16 17 21 23 25 25 25 25 25 24 23 22 23 24 26 26 26 28 29 29 28 27 28 28 28 27 27 26 26 26 27 27 26 27 29 27 26 24 23 23 23 21 19 18 17 16 15 15 14 13 11 10 9 8 7 6 9 7 7 4 8 9 8 3 3 nan 2 3 2 3 11 11 13 13 13 14 13 14 15 16 17
22 20 18 17 15 18 21 22 25 25 25 25 25 23 22 22 23 24 26 26 27 27 29 29 29 28 27 26 28 27 26 26 26 27 27 27 25 25 26 27 25 24 23 22 21 19 17 16 15 14 14 14 13 12 11 10 7 6 5 5 3 2 0 2 6 11 9 3 4 2 2 1 0 2 11 12 13 13 13 13 13 14 14 16 16
20 20 18 17 16 21 21 22 23 25 25 25 24 23 22 22 24 25 26 27 27 27 29 29 29 29 26 25 27 27 27 26 27 28 28 28 26 25 24 25 23 19 16 16 15 13 13 13 13 13 12 13 13 12 11 9 8 8 5 2 1 3 2 5 10 2 6 5 5 5 4 2 3 4 10 13 13 13 13 10 11 15 16 16 16
19 20 18 16 16 21 21 22 23 25 25 25 24 23 22 22 23 25 26 28 27 27 29 29 30 29 26 26 24 26 27 27 28 28 28 28 26 24 22 22 21 20 18 18 18 15 13 13 13 13 12 12 13 11 10 9 7 5 3 2 0 3 4 6 6 2 6 5 6 6 4 5 2 4 10 13 15 16 14 13 10 12 13 17 18
22 18 17 18 18 22 22 23 24 24 25 24 23 23 23 22 24 25 26 27 27 28 28 29 30 29 26 25 25 26 27 28 28 29 28 27 25 23 23 21 19 18 16 16 16 15 13 13 12 12 12 11 12 11 11 8 6 6 5 3 1 4 6 7 3 3 7 8 6 6 8 9 3 4 12 14 15 16 16 15 14 15 16 17 17
20 17 17 17 23 22 22 24 23 23 24 23 22 22 23 23 24 25 26 25 27 28 27 27 27 28 29 27 26 26 28 28 29 29 28 26 24 22 21 20 19 18 15 14 14 14 12 11 11 11 11 11 12 12 11 9 8 7 5 4 4 3 5 6 1 nan 6 nan 6 5 4 5 4 8 13 13 13 14 15 14 15 16 15 16 16
19 18 17 17 19 22 23 23 23 23 23 22 20 20 22 23 24 26 25 23 24 25 27 27 27 26 26 26 25 27 28 28 28 28 27 25 23 22 20 19 18 17 16 15 14 14 13 11 12 12 11 11 10 10 10 10 8 6 7 6 5 5 5 3 4 nan nan nan 7 7 6 5 5 12 12 12 13 13 14 14 14 14 15 15 15
20 19 18 17 18 25 25 24 24 24 23 21 21 21 22 23 24 24 24 23 24 24 24 26 26 26 27 26 26 26 26 25 25 27 25 24 22 20 20 19 18 18 16 15 15 15 13 12 11 11 11 9 8 9 11 9 8 9 8 9 8 6 4 6 12 9 11 10 8 8 5 4 5 11 12 11 12 13 13 14 14 14 14 14 15
22 20 19 18 19 21 28 25 25 24 23 22 22 23 23 23 23 24 23 26 26 24 25 26 25 27 27 27 26 27 27 25 26 25 23 23 21 19 18 18 17 17 16 15 15 14 13 11 10 9 9 8 7 9 9 9 10 12 12 10 9 6 4 8 11 9 11 11 8 8 6 5 9 9 11 12 12 12 13 14 15 15 14 15 nan
23 22 21 20 20 21 21 27 28 26 25 25 23 24 24 24 24 25 24 25 24 25 25 24 24 28 27 26 26 25 26 25 24 23 21 23 20 18 18 17 16 16 15 14 13 13 12 11 9 8 8 7 8 8 8 9 11 13 12 10 7 5 3 7 10 nan nan nan nan 9 nan 8 14 13 13 13 14 14 14 14 16 16 nan nan nan
23 24 24 23 23 23 22 22 25 29 26 25 24 25 25 25 25 25 24 27 26 26 26 25 28 29 28 26 25 25 26 25 24 23 22 23 21 18 17 16 15 14 14 13 12 12 12 11 10 8 7 7 7 8 8 9 12 11 9 7 7 4 3 10 11 nan nan nan nan nan 9 10 14 14 16 16 15 15 15 16 16 16 17 17 17
24 25 26 25 25 25 23 23 23 22 21 23 25 26 25 26 25 25 26 27 26 26 25 26 28 28 29 28 27 27 26 25 24 22 23 23 21 18 16 15 15 13 13 13 12 11 13 12 11 8 7 7 7 8 8 9 9 8 9 7 5 3 2 14 11 10 12 13 nan 12 nan 14 16 17 17 17 nan nan 16 16 nan 16 16 16 16
26 27 28 27 27 26 25 23 23 22 21 20 20 23 27 27 27 28 28 28 27 27 27 28 29 29 29 29 29 28 26 26 26 25 23 24 22 19 17 16 15 14 12 13 13 11 12 13 12 10 8 7 8 8 8 8 7 9 10 8 5 0 8 10 11 12 13 nan nan nan 12 18 17 17 18 18 16 16 nan nan nan 15 15 nan nan
27 29 28 28 29 27 24 22 21 21 20 21 21 22 27 29 29 30 29 30 30 28 27 28 30 29 30 30 30 26 25 24 27 24 24 23 22 20 19 18 16 15 13 12 12 12 11 12 13 12 10 9 9 8 7 7 8 9 10 7 2 3 10 10 12 12 nan nan nan 13 18 19 20 19 nan nan nan nan 19 16 15 nan nan nan nan
27 30 30 30 29 26 21 20 21 21 21 22 22 23 24 28 28 30 30 31 30 29 28 29 29 29 27 27 27 25 24 24 24 24 25 20 21 20 21 19 17 16 15 12 12 11 11 10 11 12 12 10 9 8 7 8 8 8 8 8 3 6 7 11 11 nan nan nan 12 14 20 19 nan nan nan nan nan nan nan nan nan nan nan nan nan
31 32 29 25 24 21 20 19 20 20 21 21 21 23 24 27 26 25 25 27 28 28 26 24 27 25 28 24 22 23 23 24 24 25 21 20 20 22 21 20 18 17 15 13 11 11 10 10 9 10 11 10 10 8 7 6 6 7 10 10 7 6 8 11 12 nan nan nan 11 16 22 nan nan nan nan nan nan nan nan nan nan nan nan nan nan
35 30 26 22 16 16 15 18 19 20 21 21 22 25 26 24 24 24 24 26 25 25 24 24 23 23 23 21 20 19 20 22 23 24 21 23 23 26 23 20 19 16 16 14 12 11 11 10 9 8 9 10 10 8 7 6 6 6 7 6 5 4 12 11 12 10 nan nan nan 18 nan nan nan nan nan nan nan nan nan nan nan nan nan nan nan
28 25 25 19 19 19 18 15 17 19 21 20 22 23 22 21 21 23 24 23 22 22 22 21 20 19 20 20 19 17 18 18 18 23 25 25 26 27 26 24 21 17 15 15 11 10 10 10 9 7 6 7 8 8 8 7 6 5 5 7 5 6 12 12 12 10 nan 11 nan 20 nan nan nan nan nan nan nan nan nan nan nan nan nan nan nan
26 26 23 20 18 20 22 19 18 20 23 22 23 23 20 19 20 24 24 21 20 20 20 18 17 18 18 21 20 17 17 18 17 17 19 23 26 23 23 25 23 18 15 14 14 11 11 10 9 7 6 6 7 7 8 7 7 6 6 7 5 9 10 12 12 11 nan nan nan 19 nan nan nan nan nan nan nan nan nan nan nan nan nan nan nan
29 27 24 20 17 17 18 18 18 18 19 20 20 20 19 19 22 23 22 18 17 16 16 16 16 17 18 17 17 19 18 18 16 16 17 18 21 24 25 27 24 21 19 14 15 13 12 9 9 8 6 6 6 7 8 nan 8 7 6 7 4 9 11 11 12 11 11 nan 13 20 nan nan nan nan nan nan nan nan nan nan nan nan nan nan nan
30 27 24 21 21 19 17 15 15 17 16 16 17 16 18 20 20 18 18 17 15 15 14 13 15 17 18 16 15 13 16 18 18 15 15 17 18 21 25 25 22 21 21 18 14 15 15 11 9 9 8 7 5 6 7 8 9 9 7 7 4 9 11 12 12 12 11 nan 14 nan nan nan 16 nan nan nan nan nan nan nan nan nan nan nan nan
28 25 23 22 22 21 18 16 16 18 18 18 20 20 20 19 15 15 17 18 16 16 15 14 15 18 17 15 14 14 16 20 19 17 16 18 21 21 22 23 21 20 22 20 17 16 16 14 10 9 9 8 7 6 7 8 10 10 10 8 4 8 9 10 11 13 11 nan nan nan nan 14 14 nan nan nan nan nan nan nan nan nan nan nan nan
26 23 23 22 21 21 19 18 17 18 17 16 18 21 22 19 16 17 20 20 18 17 17 15 15 16 17 17 15 15 15 17 18 19 19 21 22 23 22 21 20 nan 24 23 21 18 17 16 13 10 9 8 8 6 8 11 10 11 11 9 7 9 10 10 11 13 11 nan nan nan nan nan nan nan nan nan nan nan nan nan nan nan nan nan nan
24 25 24 22 21 20 20 19 18 18 16 15 16 19 19 19 18 19 20 19 17 16 17 16 16 17 18 18 18 17 17 19 18 18 22 22 21 21 24 22 21 20 nan nan nan 22 17 15 14 12 9 7 7 4 7 10 9 10 11 12 9 11 9 10 11 12 12 10 nan nan nan 12 12 11 nan nan nan nan nan nan nan nan nan nan nan
26 24 23 22 21 19 17 16 16 17 15 16 16 18 19 18 18 18 19 18 16 16 17 18 18 17 16 18 19 20 18 19 19 19 20 21 21 21 21 24 23 20 20 nan nan nan 19 14 14 15 12 7 5 5 6 8 9 9 11 12 9 9 9 8 11 13 13 nan nan nan nan nan nan nan nan nan nan nan nan nan nan nan nan nan nan
25 23 22 21 20 18 17 15 14 15 15 17 19 21 20 19 17 16 17 17 16 16 16 18 20 19 19 18 19 19 20 20 21 20 21 22 22 22 21 23 24 24 22 18 21 nan 25 20 13 11 12 8 5 7 7 7 9 9 12 10 9 7 8 8 10 12 13 nan nan nan nan nan nan nan nan nan nan nan nan nan nan nan nan nan nan
23 23 21 20 18 16 16 14 13 13 14 17 19 20 20 19 17 16 15 16 15 16 17 18 19 21 22 21 18 18 19 21 21 21 22 22 23 23 22 21 23 24 23 21 20 19 22 21 15 12 8 5 9 9 8 9 7 8 10 9 11 9 10 9 9 11 13 nan nan nan nan nan nan nan nan nan nan nan nan nan nan nan nan nan nan
23 21 20 19 15 12 12 12 13 15 15 15 17 19 19 19 18 17 15 14 14 17 17 17 17 18 21 21 19 18 18 17 17 17 19 20 22 24 23 22 23 23 24 25 24 19 20 nan 18 15 9 6 6 9 9 8 7 8 8 9 9 9 12 13 11 nan 12 13 nan nan nan nan nan nan nan nan 14 nan nan nan nan nan nan nan nan
21 20 19 18 14 12 12 12 12 13 15 15 17 18 18 20 19 18 14 13 14 18 18 19 18 16 18 20 22 20 19 19 19 18 19 20 21 22 21 21 22 24 24 25 26 22 21 22 21 16 11 7 10 9 11 12 16 16 nan 17 nan 15 5 16 14 11 nan nan nan nan nan nan nan nan nan nan 10 nan nan nan nan nan nan nan nan
22 19 16 15 15 13 13 13 12 12 14 15 17 19 19 19 19 17 15 11 11 17 21 19 19 18 17 18 20 21 20 20 23 21 20 20 20 21 21 20 21 22 22 23 24 24 21 20 18 17 13 10 15 9 15 20 15 17 17 16 17 21 17 6 16 15 12 nan nan nan nan 10 nan nan nan nan nan nan nan nan nan nan nan nan 14
21 19 15 13 13 14 15 15 15 15 14 14 15 17 17 17 17 18 18 14 9 12 20 21 20 19 17 19 19 19 19 21 23 24 23 21 20 20 20 20 21 22 22 23 23 23 22 19 18 17 16 13 16 18 22 21 21 20 20 20 17 16 20 18 7 15 14 nan nan 13 13 nan nan 8 nan nan nan nan nan 11 nan 10 10 12 12
22 19 15 14 14 15 15 15 15 16 15 15 15 15 15 14 16 21 23 18 11 12 15 19 20 19 20 21 21 22 22 23 25 25 24 23 22 21 20 20 21 21 22 23 23 23 21 18 17 17 17 16 15 20 22 21 20 19 19 22 16 12 14 21 19 7 15 14 nan 12 12 nan nan nan nan nan nan nan nan nan nan 9 10 7 8
22 20 17 16 16 16 16 16 16 15 15 14 14 13 13 14 16 20 21 19 15 16 19 19 20 21 22 23 23 24 26 26 25 26 27 25 24 23 22 20 20 20 21 22 21 21 21 18 17 17 17 16 18 22 21 21 22 21 21 21 21 16 11 15 19 13 9 15 13 12 12 nan nan nan nan nan nan nan nan nan nan nan 3 9 8
24 23 21 18 16 16 15 15 16 16 15 14 14 14 15 15 17 18 20 16 16 18 21 23 24 24 24 24 24 24 24 26 26 26 27 27 26 24 22 21 21 20 21 22 21 20 20 20 19 19 17 17 20 21 21 24 22 23 20 18 18 16 12 13 16 17 10 15 13 14 13 nan nan nan nan nan nan nan nan nan nan nan nan 5 8
26 24 21 18 17 17 16 16 16 17 17 17 15 15 15 15 17 18 16 18 19 20 22 21 23 25 25 25 25 24 23 23 24 25 27 27 27 26 24 23 23 22 21 20 21 20 19 20 20 19 18 18 19 19 21 24 24 21 20 16 17 16 13 15 15 15 13 14 13 15 15 15 nan nan nan nan nan nan nan nan nan nan nan nan 3
25 24 21 20 19 18 18 17 17 18 19 18 18 18 17 16 17 17 16 18 22 23 23 23 24 25 25 26 26 24 23 24 24 24 26 27 27 26 25 24 24 24 23 20 18 17 17 17 19 18 16 18 18 18 21 25 20 20 21 18 18 17 14 14 15 14 11 13 14 14 nan nan nan nan nan nan nan nan nan nan nan nan nan nan nan
26 23 21 20 19 18 18 18 19 20 19 20 20 19 17 17 18 18 18 17 19 22 23 23 23 25 26 27 27 26 26 25 24 24 26 27 27 26 24 23 23 24 25 24 21 18 17 16 16 18 18 18 19 18 18 18 21 21 22 23 19 19 15 15 16 14 12 13 14 14 13 nan nan nan nan nan nan nan nan nan nan nan nan nan nan
26 24 21 20 19 20 19 20 20 20 21 20 20 20 19 19 19 19 17 17 17 20 23 23 23 24 24 27 28 28 27 26 25 24 24 26 27 27 26 25 24 24 26 27 25 22 20 16 15 15 18 19 17 16 16 15 20 26 22 20 20 20 17 13 17 15 15 14 15 12 13 14 nan nan nan nan nan nan nan nan nan nan 5 nan nan
27 24 22 20 20 20 20 20 21 20 20 20 21 20 20 20 19 17 17 16 17 18 20 23 22 23 23 24 26 28 28 27 26 25 24 25 26 27 27 27 26 26 27 27 28 26 24 22 18 16 16 17 17 17 16 15 17 19 25 24 nan nan nan nan 21 16 18 16 13 13 13 14 nan nan nan nan nan 9 10 9 7 nan nan 5 nan
27 23 22 22 23 22 22 21 24 22 22 21 19 19 19 20 20 19 18 18 19 20 20 20 21 22 22 23 26 28 28 27 28 27 25 26 27 28 28 28 27 27 28 28 27 28 28 27 24 20 16 14 18 18 16 15 15 15 16 nan nan nan nan 19 24 18 20 17 16 13 13 13 nan nan nan nan nan nan nan 9 9 8 7 6 5
26 24 25 25 24 25 24 24 24 22 21 21 21 21 20 19 20 19 18 19 20 19 19 20 22 21 21 23 26 27 28 28 27 27 26 26 27 28 28 29 29 28 29 29 28 28 29 30 30 26 21 18 19 17 16 16 15 13 14 14 17 20 nan 25 19 25 22 20 18 15 12 13 15 nan nan nan nan nan nan 11 11 9 8 7 6
26 26 27 26 25 25 25 24 23 23 21 21 22 21 21 21 22 21 20 20 18 16 18 20 22 22 23 24 25 25 26 27 27 26 27 27 28 28 28 29 29 29 29 29 27 25 25 27 30 29 28 25 22 18 17 18 16 14 15 13 14 19 20 nan 22 23 24 23 20 17 15 13 14 nan nan nan nan nan nan nan 12 11 9 9 8
26 26 26 25 24 23 24 23 23 22 22 23 23 23 23 23 23 22 22 21 21 21 19 23 23 21 23 24 27 27 27 27 26 26 25 26 25 26 27 28 29 29 29 27 24 22 22 24 26 27 28 27 25 21 19 16 14 13 18 14 15 17 19 19 22 24 25 26 22 19 16 15 14 nan nan nan nan nan nan nan nan 12 11 10 10
27 27 27 25 24 23 23 23 22 22 22 23 23 24 24 24 25 24 24 23 22 22 22 22 22 23 25 25 25 26 27 27 26 27 26 27 26 26 28 29 28 28 27 25 23 21 19 21 23 24 24 26 25 23 20 18 16 16 16 17 17 17 18 20 20 22 24 nan nan 20 18 16 13 13 15 nan nan nan nan nan nan 13 12 12 12
28 28 27 24 23 23 22 23 23 nan nan nan nan 25 24 24 24 25 25 25 24 23 23 24 23 23 24 25 26 25 25 25 27 27 28 28 27 26 27 30 31 30 27 25 23 21 20 20 22 23 22 21 22 22 20 19 19 17 17 18 16 17 17 18 19 20 23 24 24 nan 22 18 15 17 15 16 nan 14 nan nan nan nan 13 12 12
Wind_Direction
305 306 308 308 306 306 308 309 311 313 316 316 316 316 317 317 316 315 313 311 312 313 313 313 315 316 317 317 320 320 319 316 316 317 315 318 321 323 323 321 320 319 318 316 314 313 310 306 303 300 299 296 293 294 295 294 294 297 299 300 299 301 301 296 292 287 284 283 281 277 277 279 275 274 276 276 279 279 277 278 268 296 313 286 276
308 302 303 305 305 306 309 310 312 314 314 314 315 315 316 316 314 313 312 312 313 313 314 315 315 316 318 319 320 322 322 319 317 316 318 321 324 325 324 324 323 322 321 320 318 316 313 309 305 302 300 298 295 296 299 299 298 303 303 303 302 302 304 304 299 294 287 281 279 276 275 274 276 277 276 275 274 276 279 279 274 285 303 279 277
298 300 302 307 304 306 308 309 312 313 313 313 313 314 315 314 311 311 312 312 312 313 313 313 313 314 317 318 321 321 321 321 321 319 319 324 326 326 326 327 327 326 324 323 322 320 317 312 307 304 301 300 301 301 303 304 305 308 310 305 307 310 312 313 308 299 289 285 280 275 273 273 275 277 275 272 271 274 278 285 288 284 291 278 278
293 294 299 305 304 304 307 309 311 310 311 311 310 311 312 311 309 309 309 311 312 312 311 310 312 313 316 318 320 322 322 321 322 323 325 325 326 328 329 329 329 327 327 327 326 324 319 314 310 306 305 304 303 303 307 308 312 320 316 319 320 321 322 327 324 306 292 284 280 276 319 309 281 274 275 277 279 281 281 278 275 276 276 274 270
284 289 294 297 297 301 306 308 309 309 308 307 307 308 308 306 306 307 308 310 311 311 310 309 311 313 315 317 318 321 322 321 321 323 324 328 330 329 329 330 329 329 329 330 328 326 319 315 312 308 306 305 305 307 310 317 326 337 333 327 324 329 334 336 337 317 296 284 282 287 18 333 326 281 284 283 281 280 279 277 278 278 279 278 278
281 286 289 290 293 299 303 306 307 307 305 304 304 304 304 304 306 307 307 309 309 309 308 309 311 313 314 315 318 321 318 318 320 321 324 326 333 331 329 329 330 331 331 332 329 326 321 316 314 311 308 309 309 312 317 325 346 2 351 336 327 326 339 357 14 19 33 164 214 nan nan nan 279 278 273 274 275 275 277 277 273 276 277 276 278
283 283 284 285 288 296 301 303 305 304 301 301 300 301 302 304 304 305 305 306 308 309 309 309 311 312 314 315 316 315 315 318 317 320 325 327 332 333 330 329 329 331 331 331 332 329 322 320 317 312 311 313 315 320 327 340 2 21 10 337 329 334 341 34 43 87 94 119 106 nan 195 216 254 297 285 281 284 279 276 280 280 276 279 280 279
280 280 279 282 285 296 299 300 302 301 298 296 296 298 301 302 303 303 304 306 307 309 309 309 309 310 312 311 311 312 313 315 315 319 322 326 330 331 331 329 328 331 333 335 335 332 326 324 317 312 313 317 322 330 343 351 7 24 30 19 347 305 8 62 68 71 63 47 31 323 281 281 303 306 294 290 282 277 273 273 275 277 277 277 279
279 278 278 280 285 293 294 295 297 298 294 293 294 296 298 300 301 302 304 306 308 308 308 307 308 309 308 309 310 311 311 313 316 319 322 324 326 328 332 328 327 329 332 332 331 335 329 328 323 316 315 320 330 344 351 356 11 20 38 68 154 177 146 116 109 40 9 352 331 301 299 306 301 307 296 290 280 274 272 270 267 271 274 276 274
271 273 279 277 283 286 287 291 294 295 292 292 293 296 296 298 300 302 304 307 307 308 307 307 307 307 309 309 311 310 310 311 314 318 321 322 324 327 329 330 332 333 332 334 337 338 336 335 332 323 319 327 339 351 357 7 11 21 37 32 37 153 138 135 167 287 329 330 317 308 317 298 14 338 289 282 291 289 286 286 288 282 276 272 271
267 274 276 278 282 285 286 289 290 290 289 290 293 297 297 298 299 301 305 306 306 307 307 307 306 303 305 307 309 310 309 310 313 316 318 320 325 330 328 327 333 337 336 338 344 346 347 342 336 326 326 340 348 355 6 10 10 15 20 13 37 149 140 145 161 0 324 318 323 335 316 295 356 347 300 290 286 287 282 278 277 275 274 273 271
264 269 272 278 286 281 286 287 286 287 288 289 294 296 297 298 297 300 304 304 305 305 303 300 301 303 305 306 311 311 309 309 311 315 316 318 319 323 324 326 332 336 333 333 344 349 344 342 335 335 343 356 356 0 4 8 12 12 11 19 37 73 107 123 68 nan 315 nan 305 309 321 323 333 313 297 295 291 286 284 282 277 274 276 275 271
262 264 268 274 277 282 282 283 283 282 284 289 291 292 295 295 296 301 301 299 302 303 305 301 298 299 299 302 307 308 308 307 310 313 314 315 317 322 326 325 329 333 332 330 335 339 340 339 343 346 357 6 360 2 8 12 11 16 20 29 39 67 86 112 325 nan nan nan 315 316 329 341 330 302 301 299 297 293 286 281 279 276 273 276 277
260 262 264 269 275 284 279 277 277 278 281 283 284 286 288 291 295 299 299 299 301 302 299 297 297 297 296 298 302 303 305 306 309 312 313 311 314 319 321 324 329 334 331 328 329 333 340 344 346 351 5 11 6 9 17 17 15 22 30 33 38 56 98 307 304 312 310 306 314 308 310 340 323 303 305 306 299 293 287 283 281 280 279 277 277
265 265 266 267 270 273 280 274 274 273 274 274 277 281 285 288 294 297 299 304 304 299 299 296 295 299 298 295 298 301 301 301 303 306 306 305 307 313 317 319 323 333 330 327 330 331 337 341 345 357 8 17 18 26 25 22 26 29 31 33 41 40 61 343 312 314 307 305 308 303 310 308 291 294 296 303 303 296 292 287 285 283 280 280 nan
265 266 265 263 265 268 266 275 273 273 273 275 277 283 288 292 298 304 304 305 300 299 296 294 293 295 294 295 298 300 299 298 297 296 299 299 303 307 309 313 320 327 333 327 327 330 331 332 341 1 15 22 33 37 36 31 35 36 33 36 37 48 62 315 315 nan nan nan nan 302 nan 309 305 311 309 302 303 301 296 292 287 289 nan nan nan
261 263 266 264 261 259 260 263 271 277 275 279 283 286 290 294 301 305 304 305 304 301 299 294 292 294 295 295 294 293 293 293 294 295 297 296 295 299 302 308 315 326 331 331 325 329 330 330 339 357 21 29 42 54 51 48 46 41 42 40 52 59 33 313 308 nan nan nan nan nan 308 316 314 309 307 306 305 303 301 296 292 288 286 286 285
259 263 263 263 260 259 260 263 265 267 273 282 289 293 296 298 302 304 301 302 305 301 298 293 294 296 295 292 292 291 292 291 288 287 288 289 291 294 298 303 312 323 333 330 328 328 329 329 335 350 19 34 45 58 63 62 66 61 55 51 58 59 301 309 304 303 301 301 nan 309 nan 323 312 308 308 306 nan nan 302 298 nan 296 293 294 293
258 258 260 262 262 263 264 264 267 271 276 282 287 296 301 302 305 305 302 302 303 304 298 295 296 295 293 291 292 294 293 292 290 288 290 293 294 297 300 303 310 319 332 335 330 328 331 332 334 345 7 27 41 54 68 77 81 70 65 55 45 70 309 313 307 301 301 nan nan nan 322 308 311 313 310 309 308 308 nan nan nan 302 303 nan nan
259 260 261 260 260 261 263 269 275 282 286 291 293 295 303 307 307 306 304 304 305 302 298 298 297 295 293 293 294 295 296 299 296 298 297 298 302 309 304 306 308 316 326 339 334 327 332 337 336 341 358 10 30 46 63 74 73 74 69 61 56 283 323 320 305 302 nan nan nan 319 315 314 315 316 nan nan nan nan 296 301 301 nan nan nan nan
258 259 257 256 263 273 282 287 290 297 297 297 295 297 303 304 301 304 305 303 300 299 297 298 298 295 293 293 295 299 303 305 304 306 304 303 307 306 306 306 309 312 322 330 337 334 330 335 336 341 350 2 14 36 51 62 68 74 78 74 52 345 341 321 306 nan nan nan 316 319 314 316 nan nan nan nan nan nan nan nan nan nan nan nan nan
248 249 250 264 287 300 306 301 297 298 290 287 287 286 287 291 290 294 297 299 298 297 297 298 299 296 293 294 300 302 303 302 302 303 302 307 307 302 304 302 304 309 312 324 331 335 331 326 337 343 347 352 4 0 9 36 64 72 71 71 20 356 345 321 306 nan nan nan 323 323 320 nan nan nan nan nan nan nan nan nan nan nan nan nan nan
248 258 275 292 313 328 333 319 303 294 287 284 285 285 288 290 295 297 299 300 300 298 300 302 301 300 300 299 295 291 291 295 298 302 304 310 312 307 302 300 297 302 309 313 326 333 327 323 332 347 346 353 347 355 353 359 18 65 74 52 21 346 324 321 304 304 nan nan nan 320 nan nan nan nan nan nan nan nan nan nan nan nan nan nan nan
267 287 300 308 309 317 316 298 295 288 285 289 293 300 306 305 303 304 303 304 305 303 303 303 296 299 304 298 286 286 290 291 290 307 307 305 312 310 306 305 298 295 302 306 311 329 333 326 331 344 343 331 336 344 344 360 2 23 50 58 12 349 328 316 308 310 nan 318 nan 320 nan nan nan nan nan nan nan nan nan nan nan nan nan nan nan
281 282 282 289 296 298 301 296 297 307 313 312 309 314 311 302 304 308 306 309 310 305 306 298 284 288 298 293 282 278 293 302 299 289 289 302 311 307 301 305 301 295 303 297 303 306 312 306 306 317 317 327 333 342 341 348 349 6 38 60 17 335 326 313 313 313 nan nan nan 323 nan nan nan nan nan nan nan nan nan nan nan nan nan nan nan
277 274 285 298 309 308 305 313 311 319 324 318 310 312 310 309 307 303 301 302 305 298 292 288 287 286 290 293 286 281 283 298 298 295 300 304 315 316 311 311 304 303 305 306 301 301 301 303 308 313 319 317 329 339 336 nan 340 353 22 55 9 327 320 309 312 310 311 nan 328 322 nan nan nan nan nan nan nan nan nan nan nan nan nan nan nan
279 289 302 313 312 308 310 315 316 318 321 309 303 309 321 322 311 307 312 314 303 301 301 293 294 299 302 309 309 289 287 304 306 307 317 324 329 327 326 323 311 304 307 309 308 303 302 307 310 314 313 313 329 339 344 345 334 341 2 37 347 329 315 312 312 308 313 nan 326 nan nan nan 331 nan nan nan nan nan nan nan nan nan nan nan nan
284 295 302 301 302 307 309 314 317 320 323 320 314 316 325 331 325 311 313 320 305 300 303 306 302 301 306 316 319 310 307 311 312 321 334 335 338 334 333 334 324 312 307 308 312 308 307 306 311 313 316 318 329 343 344 351 343 336 348 358 336 321 305 309 309 307 312 nan nan nan nan 334 317 nan nan nan nan nan nan nan nan nan nan nan nan
285 290 289 292 298 304 307 316 323 323 327 329 325 328 330 332 326 314 313 317 310 303 305 311 311 312 318 318 318 314 313 318 326 329 332 338 338 338 336 335 335 nan 316 310 308 311 311 309 310 310 312 313 317 335 344 349 341 331 334 334 315 317 312 313 310 307 313 nan nan nan nan nan nan nan nan nan nan nan nan nan nan nan nan nan nan
280 286 291 292 294 302 312 323 320 323 333 334 335 331 332 331 328 319 317 315 316 309 308 313 316 319 324 323 324 324 327 328 330 327 328 334 337 336 337 338 336 329 nan nan nan 306 307 307 305 306 308 316 311 327 316 324 331 319 321 313 309 315 311 310 308 308 311 318 nan nan nan 324 334 328 nan nan nan nan nan nan nan nan nan nan nan
275 282 285 288 292 299 311 319 323 327 333 334 332 331 331 328 328 323 320 320 315 313 316 314 315 322 325 327 322 326 328 322 326 329 329 330 331 336 339 336 336 333 328 nan nan nan 289 292 305 303 310 322 312 290 304 308 318 317 304 306 318 319 321 318 310 307 308 nan nan nan nan nan nan nan nan nan nan nan nan nan nan nan nan nan nan
274 280 283 287 293 302 313 324 326 329 329 333 335 333 330 327 325 325 325 319 312 313 316 313 319 326 327 328 328 330 327 327 333 335 334 332 332 335 338 335 337 336 332 325 296 nan 279 277 268 276 304 319 299 281 272 287 302 319 304 306 313 328 317 334 309 306 305 nan nan nan nan nan nan nan nan nan nan nan nan nan nan nan nan nan nan
267 275 280 286 298 311 317 320 319 322 330 336 335 332 327 322 320 323 323 316 309 309 314 317 324 328 326 327 327 328 330 331 334 334 332 334 334 333 335 336 337 337 332 321 301 286 274 270 266 259 258 293 296 283 279 281 296 309 298 302 315 330 320 336 316 305 307 nan nan nan nan nan nan nan nan nan nan nan nan nan nan nan nan nan nan
270 275 282 289 302 310 309 309 315 322 333 334 332 330 325 318 316 317 315 311 314 311 313 319 323 323 320 320 320 324 327 326 323 324 328 334 336 336 335 337 338 339 331 322 310 299 283 nan 272 265 258 247 274 289 280 276 276 267 271 261 270 313 329 332 326 nan 307 306 nan nan nan nan nan nan nan nan 351 nan nan nan nan nan nan nan nan
269 274 280 293 303 309 308 305 312 321 329 331 331 330 321 317 314 311 308 313 320 314 314 318 320 317 315 313 317 324 331 332 328 329 336 336 337 336 335 338 339 340 334 325 317 306 292 285 282 277 260 271 274 259 279 267 263 263 nan 257 nan 224 242 322 325 316 nan nan nan nan nan nan nan nan nan nan 331 nan nan nan nan nan nan nan nan
268 277 282 294 303 305 301 299 307 317 320 328 329 325 322 318 313 309 307 307 323 314 311 311 307 308 311 317 322 328 333 334 331 335 335 337 339 341 342 338 338 340 337 331 321 312 297 287 284 276 261 256 275 277 240 244 261 269 269 259 250 251 250 243 315 312 305 nan nan nan nan 294 nan nan nan nan nan nan nan nan nan nan nan nan 19
266 279 287 292 295 294 298 303 315 323 324 328 325 321 323 317 312 305 301 309 320 309 305 309 311 315 321 323 325 329 332 330 332 332 333 334 337 341 342 341 338 341 341 336 327 315 303 292 286 282 272 265 263 266 264 252 254 254 254 245 229 240 257 259 238 298 299 nan nan 297 299 nan nan 316 nan nan nan nan nan 0 nan 10 16 24 26
263 270 279 285 285 288 299 307 316 323 325 329 329 326 322 313 301 302 308 311 326 326 308 310 316 322 325 326 326 327 328 327 330 330 332 335 336 338 338 339 337 339 342 337 333 322 312 300 294 284 276 270 264 265 269 267 265 268 272 267 259 261 258 260 259 243 293 291 nan 297 300 nan nan nan nan nan nan nan nan nan nan 14 27 10 11
266 267 268 270 279 283 290 299 305 314 315 318 318 313 309 298 292 292 289 303 323 328 319 317 320 320 325 324 325 327 328 331 334 334 334 336 336 337 336 336 335 337 337 335 329 323 317 307 299 287 273 268 267 265 274 271 267 269 268 264 257 265 267 249 263 276 281 290 289 289 284 nan nan nan nan nan nan nan nan nan nan nan 13 347 6
258 260 265 271 279 282 285 289 299 305 307 306 303 298 297 292 286 283 288 296 300 316 323 323 319 320 320 319 319 319 324 329 334 335 334 334 335 337 336 334 336 334 332 330 329 325 322 313 304 294 282 265 265 270 268 264 260 261 262 268 269 270 271 259 254 273 283 281 284 281 281 nan nan nan nan nan nan nan nan nan nan nan nan 347 2
259 263 266 267 270 276 278 283 287 290 293 292 290 290 283 281 283 292 289 291 293 302 317 318 311 313 312 313 313 319 323 324 325 328 329 330 332 335 336 334 331 329 328 331 330 329 324 319 311 299 290 273 262 267 264 265 266 257 259 261 264 267 266 265 262 260 270 283 284 280 277 276 nan nan nan nan nan nan nan nan nan nan nan nan 357
254 258 261 266 270 271 273 274 279 280 282 287 290 286 284 281 282 282 278 283 285 293 308 310 313 310 309 310 314 318 323 324 322 321 323 326 327 329 333 334 330 326 323 318 315 316 315 320 313 299 288 287 274 273 271 266 258 273 274 267 259 250 256 267 265 262 271 278 280 280 nan nan nan nan nan nan nan nan nan nan nan nan nan nan nan
251 254 260 264 266 270 272 274 276 281 282 283 284 286 282 277 278 276 273 271 277 294 300 307 304 305 307 310 315 320 322 323 323 322 322 322 323 322 325 326 326 324 320 316 311 310 312 318 314 308 294 282 274 270 275 272 268 268 266 267 267 260 253 265 264 267 276 274 275 276 278 nan nan nan nan nan nan nan nan nan nan nan nan nan nan
251 250 250 255 261 264 268 272 275 278 280 279 282 284 285 282 282 282 281 282 280 284 294 298 297 297 304 308 313 318 320 322 322 323 321 319 320 322 322 323 324 322 321 316 311 309 305 308 309 308 295 292 284 279 276 275 266 276 267 272 269 265 257 267 275 269 279 277 277 277 278 284 nan nan nan nan nan nan nan nan nan nan 298 nan nan
251 251 252 255 258 259 262 265 268 271 274 276 277 279 279 276 276 271 278 278 275 275 280 287 294 298 299 304 313 315 319 320 321 322 320 319 318 320 320 322 322 321 318 316 313 311 307 305 308 308 308 305 299 283 279 281 275 280 272 265 nan nan nan nan 270 260 272 273 269 271 275 284 nan nan nan nan nan 290 293 294 291 nan nan 282 nan
249 251 253 253 254 255 255 258 260 258 260 261 265 270 277 281 277 272 268 271 276 276 283 289 293 298 307 306 309 314 316 318 321 322 321 318 318 317 316 317 321 323 324 323 319 312 308 305 307 308 312 310 301 292 281 275 275 277 265 nan nan nan nan 262 266 261 262 267 267 265 269 277 nan nan nan nan nan nan nan 296 287 284 280 279 272
243 247 249 248 251 255 255 255 261 261 259 261 262 265 265 267 272 273 273 272 274 281 284 289 292 297 300 307 311 312 314 318 320 321 322 320 318 317 316 316 317 319 323 327 326 322 316 312 305 305 307 302 293 297 287 281 266 256 261 257 250 251 nan 268 268 256 262 260 264 267 262 264 271 nan nan nan nan nan nan 284 286 285 277 276 272
243 244 248 249 250 255 257 257 260 261 262 262 261 262 264 263 263 263 269 271 276 282 284 286 291 294 294 297 303 308 314 317 321 323 322 322 321 320 318 317 317 318 318 322 325 321 314 312 310 309 304 300 300 298 289 278 286 266 260 253 247 251 257 nan 259 270 262 265 265 256 249 263 268 nan nan nan nan nan nan nan 284 284 278 278 274
242 245 247 249 251 254 257 258 259 262 262 262 263 261 263 266 268 268 269 273 277 282 283 285 289 293 295 297 302 308 311 313 313 315 316 313 317 319 317 318 317 318 317 317 317 314 310 309 311 308 308 307 303 297 284 281 275 267 266 258 254 255 257 255 252 254 255 259 259 269 261 248 248 nan nan nan nan nan nan nan nan 285 282 277 278
240 242 243 247 248 250 254 257 260 263 265 265 266 265 266 268 268 268 266 268 269 274 283 289 294 296 297 301 306 303 305 309 313 313 313 315 316 317 318 317 314 313 315 317 312 311 310 305 308 308 306 306 300 297 294 282 274 268 273 269 268 261 258 254 249 250 244 nan nan 265 264 269 260 254 268 nan nan nan nan nan nan 282 280 277 278
239 240 241 243 245 247 250 253 255 nan nan nan nan 268 268 269 270 269 269 268 268 272 275 282 289 292 300 302 304 307 309 313 315 317 317 317 317 317 317 315 313 313 314 310 306 304 302 301 303 302 296 301 298 296 293 284 278 275 274 273 272 273 275 271 262 255 252 249 251 nan 254 260 262 259 265 269 nan 270 nan nan nan nan 279 279 278